| time (UTC) | temp C | wind direction | speed KPH | gust KPH | rain 1hr cm | rain 24hr cm | rain mn cm | humidity % | barometer mb |
| 20260507185324 | 12 | 251 | 3.2 | 3.2 | 0.00 | 0.00 | 0.00 | 48 | 1011.1 |
| 20260507184822 | 13 | 318 | 6.4 | 9.7 | 0.00 | 0.00 | 0.00 | 46 | 1011.2 |
| 20260507184320 | 13 | 321 | 4.8 | 9.7 | 0.00 | 0.00 | 0.00 | 45 | 1011.2 |
| 20260507183816 | 13 | 180 | 4.8 | 9.7 | 0.00 | 0.00 | 0.00 | 43 | 1011.3 |
| 20260507183313 | 13 | 302 | 9.7 | 12.9 | 0.00 | 0.00 | 0.00 | 44 | 1011.3 |
| 20260507182811 | 13 | 268 | 8.0 | 9.7 | 0.00 | 0.00 | 0.00 | 48 | 1011.1 |
| 20260507182307 | 12 | 338 | 3.2 | 4.8 | 0.00 | 0.00 | 0.00 | 52 | 1011.1 |
| 20260507181802 | 12 | 298 | 1.6 | 1.6 | 0.00 | 0.00 | 0.00 | 47 | 1011.3 |
| 20260507181259 | 13 | 296 | 6.4 | 9.7 | 0.00 | 0.00 | 0.00 | 47 | 1011.3 |
| 20260507180755 | 13 | 349 | 8.0 | 9.7 | 0.00 | 0.00 | 0.00 | 47 | 1011.1 |
| 20260507180253 | 12 | 252 | 9.7 | 14.5 | 0.00 | 0.00 | 0.00 | 48 | 1011.3 |
| 20260507175748 | 12 | 264 | 4.8 | 6.4 | 0.00 | 0.00 | 0.00 | 47 | 1011.4 |
| 20260507175245 | 12 | 289 | 4.8 | 4.8 | 0.00 | 0.00 | 0.00 | 47 | 1011.3 |
| 20260507174742 | 12 | 281 | 4.8 | 6.4 | 0.00 | 0.00 | 0.00 | 47 | 1011.5 |
| 20260507174240 | 13 | 263 | 3.2 | 4.8 | 0.00 | 0.00 | 0.00 | 47 | 1011.4 |
| 20260507173738 | 12 | 351 | 6.4 | 9.7 | 0.00 | 0.00 | 0.00 | 51 | 1011.4 |
| 20260507173235 | 13 | 219 | 8.0 | 9.7 | 0.00 | 0.00 | 0.00 | 46 | 1011.5 |
| 20260507172731 | 12 | 285 | 6.4 | 6.4 | 0.00 | 0.00 | 0.00 | 46 | 1011.5 |
| 20260507172228 | 12 | 0 | 3.2 | 6.4 | 0.00 | 0.00 | 0.00 | 49 | 1011.7 |
| 20260507171728 | 12 | 274 | 8.0 | 11.3 | 0.00 | 0.00 | 0.00 | 44 | 1011.6 |
| 20260507171226 | 11 | 36 | 3.2 | 4.8 | 0.00 | 0.00 | 0.00 | 48 | 1011.8 |
| 20260507170722 | 12 | 210 | 6.4 | 11.3 | 0.00 | 0.00 | 0.00 | 48 | 1011.8 |
| 20260507170220 | 12 | 29 | 3.2 | 4.8 | 0.00 | 0.00 | 0.00 | 51 | 1011.9 |
| 20260507165715 | 11 | 45 | 3.2 | 6.4 | 0.00 | 0.00 | 0.00 | 48 | 1011.9 |
| 20260507165211 | 11 | 211 | 8.0 | 9.7 | 0.00 | 0.00 | 0.00 | 51 | 1012.0 |
| 20260507164707 | 12 | 212 | 6.4 | 9.7 | 0.00 | 0.00 | 0.00 | 47 | 1012.2 |
| 20260507164205 | 12 | 262 | 6.4 | 11.3 | 0.00 | 0.00 | 0.00 | 45 | 1012.3 |
| 20260507163702 | 12 | 356 | 0.0 | 1.6 | 0.00 | 0.00 | 0.00 | 49 | 1011.9 |
| 20260507163200 | 11 | 351 | 3.2 | 3.2 | 0.00 | 0.00 | 0.00 | 45 | 1012.0 |
| 20260507162655 | 12 | 10 | 6.4 | 6.4 | 0.00 | 0.00 | 0.00 | 47 | 1012.2 |
| 20260507162151 | 12 | 277 | 4.8 | 6.4 | 0.00 | 0.00 | 0.00 | 50 | 1012.2 |
| 20260507161648 | 12 | 289 | 3.2 | 4.8 | 0.00 | 0.00 | 0.00 | 50 | 1012.4 |
| 20260507161144 | 12 | 11 | 3.2 | 4.8 | 0.00 | 0.00 | 0.00 | 50 | 1012.4 |
| 20260507160641 | 11 | 13 | 3.2 | 6.4 | 0.00 | 0.00 | 0.00 | 50 | 1012.5 |
| 20260507160138 | 11 | 16 | 1.6 | 3.2 | 0.00 | 0.00 | 0.00 | 58 | 1012.5 |
| 20260507155633 | 11 | 29 | 6.4 | 11.3 | 0.00 | 0.00 | 0.00 | 47 | 1012.3 |
| 20260507155130 | 11 | 5 | 3.2 | 3.2 | 0.00 | 0.00 | 0.00 | 53 | 1012.5 |
| 20260507154627 | 12 | 21 | 1.6 | 1.6 | 0.00 | 0.00 | 0.00 | 48 | 1012.6 |
| 20260507154125 | 11 | 351 | 6.4 | 9.7 | 0.00 | 0.00 | 0.00 | 50 | 1012.4 |
| 20260507153620 | 11 | 271 | 3.2 | 3.2 | 0.00 | 0.00 | 0.00 | 48 | 1012.5 |
| 20260507153117 | 11 | 281 | 6.4 | 11.3 | 0.00 | 0.00 | 0.00 | 46 | 1012.5 |
| 20260507152613 | 11 | 283 | 3.2 | 6.4 | 0.00 | 0.00 | 0.00 | 50 | 1012.5 |
| 20260507152109 | 11 | 253 | 6.4 | 9.7 | 0.00 | 0.00 | 0.00 | 49 | 1012.5 |
| 20260507151606 | 11 | 26 | 4.8 | 4.8 | 0.00 | 0.00 | 0.00 | 46 | 1012.5 |
| 20260507151103 | 11 | 284 | 1.6 | 1.6 | 0.00 | 0.00 | 0.00 | 50 | 1012.7 |
| 20260507150600 | 10 | 339 | 4.8 | 4.8 | 0.00 | 0.00 | 0.00 | 47 | 1012.9 |
| 20260507150056 | 10 | 280 | 6.4 | 6.4 | 0.00 | 0.00 | 0.00 | 50 | 1013.0 |
| 20260507145551 | 11 | 19 | 1.6 | 3.2 | 0.00 | 0.00 | 0.00 | 51 | 1013.0 |
| 20260507145050 | 11 | 161 | 1.6 | 1.6 | 0.00 | 0.00 | 0.00 | 51 | 1013.0 |
| 20260507144546 | 11 | 355 | 1.6 | 1.6 | 0.00 | 0.00 | 0.00 | 51 | 1013.2 |
| 20260507144044 | 11 | 351 | 3.2 | 4.8 | 0.00 | 0.00 | 0.00 | 50 | 1013.2 |
| 20260507143540 | 10 | 104 | 1.6 | 1.6 | 0.00 | 0.00 | 0.00 | 50 | 1013.3 |
| 20260507143038 | 10 | 12 | 4.8 | 9.7 | 0.00 | 0.00 | 0.00 | 56 | 1013.0 |
| 20260507142533 | 10 | 255 | 6.4 | 9.7 | 0.00 | 0.00 | 0.00 | 53 | 1013.3 |
| 20260507142030 | 10 | 89 | 6.4 | 6.4 | 0.00 | 0.00 | 0.00 | 56 | 1013.3 |
| 20260507141526 | 10 | 21 | 3.2 | 9.7 | 0.00 | 0.00 | 0.00 | 56 | 1013.3 |
| 20260507141023 | 10 | 334 | 3.2 | 3.2 | 0.00 | 0.00 | 0.00 | 56 | 1013.5 |
| 20260507140520 | 10 | 20 | 3.2 | 4.8 | 0.00 | 0.00 | 0.00 | 57 | 1013.8 |
| 20260507140018 | 10 | 242 | 3.2 | 4.8 | 0.00 | 0.00 | 0.00 | 54 | 1013.7 |
| 20260507135514 | 10 | 289 | 1.6 | 3.2 | 0.00 | 0.00 | 0.00 | 58 | 1013.9 |
| 20260507135011 | 9 | 359 | 6.4 | 6.4 | 0.00 | 0.00 | 0.00 | 59 | 1013.8 |
| 20260507134508 | 9 | 12 | 3.2 | 4.8 | 0.00 | 0.00 | 0.00 | 58 | 1014.0 |
| 20260507134003 | 9 | 311 | 3.2 | 3.2 | 0.00 | 0.00 | 0.00 | 60 | 1013.9 |
| 20260507133500 | 8 | 31 | 3.2 | 3.2 | 0.00 | 0.00 | 0.00 | 58 | 1014.0 |
| 20260507132958 | 8 | 320 | 3.2 | 3.2 | 0.00 | 0.00 | 0.00 | 62 | 1014.1 |
| 20260507132454 | 8 | 324 | 4.8 | 4.8 | 0.00 | 0.00 | 0.00 | 60 | 1014.0 |
| 20260507131951 | 8 | 35 | 3.2 | 4.8 | 0.00 | 0.00 | 0.00 | 60 | 1013.8 |
| 20260507131448 | 8 | 351 | 1.6 | 3.2 | 0.00 | 0.00 | 0.00 | 62 | 1014.0 |
| 20260507130944 | 8 | 289 | 4.8 | 6.4 | 0.00 | 0.00 | 0.00 | 61 | 1014.0 |
| 20260507130442 | 8 | 273 | 3.2 | 3.2 | 0.00 | 0.00 | 0.00 | 61 | 1013.8 |
| 20260507125941 | 8 | 14 | 1.6 | 1.6 | 0.00 | 0.00 | 0.00 | 64 | 1014.0 |
| 20260507125438 | 8 | 307 | 3.2 | 4.8 | 0.00 | 0.00 | 0.00 | 63 | 1013.9 |
| 20260507124935 | 8 | 31 | 6.4 | 6.4 | 0.00 | 0.00 | 0.00 | 63 | 1014.1 |
| 20260507124431 | 7 | 310 | 1.6 | 3.2 | 0.00 | 0.00 | 0.00 | 63 | 1014.0 |
| 20260507123930 | 7 | 3 | 3.2 | 3.2 | 0.00 | 0.00 | 0.00 | 63 | 1013.9 |
| 20260507123427 | 7 | 270 | 1.6 | 1.6 | 0.00 | 0.00 | 0.00 | 65 | 1013.9 |
| 20260507122924 | 7 | 35 | 4.8 | 6.4 | 0.00 | 0.00 | 0.00 | 67 | 1014.0 |
| 20260507122418 | 7 | 7 | 3.2 | 4.8 | 0.00 | 0.00 | 0.00 | 69 | 1014.0 |
| 20260507121915 | 7 | 1 | 1.6 | 3.2 | 0.00 | 0.00 | 0.00 | 68 | 1013.9 |
| 20260507121410 | 6 | 46 | 1.6 | 3.2 | 0.00 | 0.00 | 0.00 | 69 | 1014.0 |
| 20260507120907 | 6 | 14 | 3.2 | 4.8 | 0.00 | 0.00 | 0.00 | 68 | 1013.9 |
| 20260507120404 | 6 | 333 | 8.0 | 11.3 | 0.00 | 0.00 | 0.00 | 71 | 1013.9 |
| 20260507115900 | 6 | 284 | 4.8 | 4.8 | 0.00 | 0.00 | 0.00 | 75 | 1014.0 |
| 20260507115356 | 5 | 354 | 0.0 | 1.6 | 0.00 | 0.00 | 0.00 | 77 | 1013.9 |
| 20260507114852 | 5 | 66 | 0.0 | 1.6 | 0.00 | 0.00 | 0.00 | 82 | 1013.9 |
| 20260507114349 | 4 | 102 | 1.6 | 1.6 | 0.00 | 0.00 | 0.00 | 85 | 1014.0 |
| 20260507113846 | 3 | 301 | 1.6 | 1.6 | 0.00 | 0.00 | 0.00 | 88 | 1013.9 |
| 20260507113343 | 3 | 7 | 0.0 | 0.0 | 0.00 | 0.00 | 0.00 | 88 | 1013.8 |
| 20260507112841 | 3 | 7 | 0.0 | 0.0 | 0.00 | 0.00 | 0.00 | 89 | 1013.7 |
| 20260507112338 | 3 | 7 | 0.0 | 0.0 | 0.00 | 0.00 | 0.00 | 90 | 1013.8 |
| 20260507111836 | 2 | 7 | 0.0 | 0.0 | 0.00 | 0.00 | 0.00 | 90 | 1013.5 |
| 20260507111332 | 2 | 7 | 0.0 | 0.0 | 0.00 | 0.00 | 0.00 | 90 | 1013.5 |
| 20260507110828 | 3 | 7 | 0.0 | 0.0 | 0.00 | 0.00 | 0.00 | 89 | 1013.3 |
| 20260507110324 | 2 | 6 | 0.0 | 0.0 | 0.00 | 0.00 | 0.00 | 89 | 1013.4 |
| 20260507105821 | 2 | 7 | 0.0 | 0.0 | 0.00 | 0.00 | 0.00 | 92 | 1013.4 |
| 20260507105318 | 2 | 7 | 0.0 | 0.0 | 0.00 | 0.00 | 0.00 | 92 | 1013.3 |
| 20260507104815 | 2 | 7 | 0.0 | 0.0 | 0.00 | 0.00 | 0.00 | 92 | 1013.3 |
| 20260507104311 | 1 | 7 | 0.0 | 0.0 | 0.00 | 0.00 | 0.00 | 92 | 1013.1 |
| 20260507103807 | 1 | 6 | 0.0 | 0.0 | 0.00 | 0.00 | 0.00 | 91 | 1012.9 |
| 20260507103304 | 1 | 7 | 0.0 | 0.0 | 0.00 | 0.00 | 0.00 | 90 | 1013.1 |
| 20260507102800 | 1 | 6 | 0.0 | 0.0 | 0.00 | 0.00 | 0.00 | 90 | 1012.9 |
| 20260507102257 | 2 | 6 | 0.0 | 0.0 | 0.00 | 0.00 | 0.00 | 89 | 1012.8 |
| 20260507101753 | 2 | 6 | 0.0 | 0.0 | 0.00 | 0.00 | 0.00 | 87 | 1012.8 |
| 20260507101248 | 2 | 6 | 0.0 | 0.0 | 0.00 | 0.00 | 0.00 | 87 | 1013.1 |
| 20260507100745 | 2 | 6 | 0.0 | 0.0 | 0.00 | 0.00 | 0.00 | 88 | 1012.9 |
| 20260507100244 | 2 | 6 | 0.0 | 0.0 | 0.00 | 0.00 | 0.00 | 87 | 1012.9 |
| 20260507095741 | 2 | 6 | 0.0 | 0.0 | 0.00 | 0.00 | 0.00 | 87 | 1012.9 |
| 20260507095238 | 2 | 5 | 0.0 | 0.0 | 0.00 | 0.00 | 0.00 | 87 | 1013.0 |
| 20260507094735 | 2 | 5 | 0.0 | 0.0 | 0.00 | 0.00 | 0.00 | 86 | 1012.9 |
| 20260507094232 | 2 | 5 | 0.0 | 0.0 | 0.00 | 0.00 | 0.00 | 86 | 1012.8 |
| 20260507093729 | 2 | 5 | 0.0 | 0.0 | 0.00 | 0.00 | 0.00 | 85 | 1012.8 |
| 20260507093227 | 2 | 5 | 0.0 | 0.0 | 0.00 | 0.00 | 0.00 | 85 | 1012.7 |
| 20260507092725 | 3 | 5 | 0.0 | 0.0 | 0.00 | 0.00 | 0.00 | 84 | 1013.0 |
| 20260507092220 | 3 | 5 | 0.0 | 0.0 | 0.00 | 0.00 | 0.00 | 82 | 1012.9 |
| 20260507091717 | 3 | 5 | 0.0 | 0.0 | 0.00 | 0.00 | 0.00 | 81 | 1012.8 |
| 20260507091214 | 3 | 349 | 0.0 | 0.0 | 0.00 | 0.00 | 0.00 | 80 | 1012.9 |
| 20260507090709 | 4 | 347 | 0.0 | 0.0 | 0.00 | 0.00 | 0.00 | 79 | 1012.9 |
| 20260507090206 | 4 | 346 | 0.0 | 0.0 | 0.00 | 0.00 | 0.00 | 78 | 1012.8 |
| 20260507085703 | 4 | 345 | 0.0 | 0.0 | 0.00 | 0.00 | 0.00 | 78 | 1012.8 |
| 20260507085200 | 5 | 344 | 0.0 | 0.0 | 0.00 | 0.00 | 0.00 | 77 | 1012.7 |
| 20260507084657 | 5 | 326 | 1.6 | 1.6 | 0.00 | 0.00 | 0.00 | 75 | 1012.8 |
| 20260507084153 | 5 | 22 | 0.0 | 0.0 | 0.00 | 0.00 | 0.00 | 77 | 1012.7 |
| 20260507083650 | 5 | 8 | 1.6 | 3.2 | 0.00 | 0.00 | 0.00 | 76 | 1012.9 |
| 20260507083147 | 5 | 28 | 0.0 | 0.0 | 0.00 | 0.00 | 0.00 | 76 | 1012.8 |
| 20260507082643 | 5 | 5 | 0.0 | 1.6 | 0.00 | 0.00 | 0.00 | 77 | 1012.6 |
| 20260507082139 | 5 | 344 | 0.0 | 1.6 | 0.00 | 0.00 | 0.00 | 77 | 1012.8 |
| 20260507081636 | 5 | 11 | 0.0 | 0.0 | 0.00 | 0.00 | 0.00 | 77 | 1012.9 |
| 20260507081132 | 5 | 349 | 1.6 | 3.2 | 0.00 | 0.00 | 0.00 | 77 | 1013.2 |
| 20260507080629 | 5 | 331 | 1.6 | 3.2 | 0.00 | 0.00 | 0.00 | 76 | 1012.8 |
| 20260507080125 | 5 | 353 | 1.6 | 1.6 | 0.00 | 0.00 | 0.00 | 76 | 1013.0 |
| 20260507075625 | 5 | 352 | 1.6 | 1.6 | 0.00 | 0.00 | 0.00 | 76 | 1013.0 |
| 20260507075122 | 5 | 6 | 0.0 | 0.0 | 0.00 | 0.00 | 0.00 | 76 | 1012.8 |
| 20260507074619 | 5 | 357 | 1.6 | 3.2 | 0.00 | 0.00 | 0.00 | 75 | 1012.8 |
| 20260507074118 | 5 | 358 | 0.0 | 0.0 | 0.00 | 0.00 | 0.00 | 76 | 1012.7 |
| 20260507073613 | 5 | 313 | 0.0 | 1.6 | 0.00 | 0.00 | 0.00 | 76 | 1012.9 |
| 20260507073109 | 5 | 6 | 1.6 | 3.2 | 0.00 | 0.00 | 0.00 | 77 | 1012.6 |
| 20260507072607 | 5 | 320 | 1.6 | 1.6 | 0.00 | 0.00 | 0.00 | 76 | 1012.8 |
| 20260507072104 | 5 | 1 | 0.0 | 0.0 | 0.00 | 0.00 | 0.00 | 76 | 1012.7 |
| 20260507071602 | 5 | 5 | 0.0 | 0.0 | 0.00 | 0.00 | 0.00 | 79 | 1012.9 |
| 20260507071058 | 5 | 282 | 3.2 | 3.2 | 0.00 | 0.00 | 0.00 | 77 | 1013.0 |
| 20260507070555 | 5 | 21 | 0.0 | 0.0 | 0.00 | 0.00 | 0.00 | 78 | 1013.0 |
| 20260507070052 | 6 | 43 | 0.0 | 0.0 | 0.00 | 0.00 | 0.00 | 77 | 1012.9 |
| 20260507065548 | 5 | 28 | 3.2 | 3.2 | 0.00 | 0.00 | 0.00 | 77 | 1012.8 |
| 20260507065045 | 6 | 42 | 1.6 | 1.6 | 0.00 | 0.00 | 0.00 | 78 | 1012.8 |
| 20260507064543 | 6 | 22 | 3.2 | 4.8 | 0.00 | 0.00 | 0.00 | 77 | 1012.8 |
| 20260507064042 | 6 | 21 | 0.0 | 0.0 | 0.00 | 0.00 | 0.00 | 78 | 1012.9 |
| 20260507063538 | 6 | 20 | 3.2 | 3.2 | 0.00 | 0.00 | 0.00 | 78 | 1012.9 |
| 20260507063036 | 6 | 27 | 0.0 | 1.6 | 0.00 | 0.00 | 0.00 | 79 | 1013.0 |
| 20260507062532 | 6 | 10 | 0.0 | 0.0 | 0.00 | 0.00 | 0.00 | 80 | 1013.0 |
| 20260507062030 | 6 | 20 | 0.0 | 0.0 | 0.00 | 0.00 | 0.00 | 79 | 1012.9 |
| 20260507061528 | 6 | 0 | 0.0 | 1.6 | 0.00 | 0.00 | 0.00 | 80 | 1012.9 |
| 20260507061025 | 6 | 33 | 1.6 | 1.6 | 0.00 | 0.00 | 0.00 | 82 | 1013.0 |
| 20260507060523 | 6 | 2 | 0.0 | 0.0 | 0.00 | 0.00 | 0.00 | 81 | 1013.1 |
| 20260507060020 | 6 | 344 | 1.6 | 1.6 | 0.00 | 0.00 | 0.00 | 82 | 1013.3 |
| 20260507055520 | 6 | 6 | 0.0 | 0.0 | 0.00 | 0.00 | 0.00 | 82 | 1013.3 |
| 20260507055016 | 6 | 21 | 0.0 | 0.0 | 0.00 | 0.00 | 0.00 | 83 | 1013.2 |
| 20260507054512 | 6 | 11 | 3.2 | 4.8 | 0.00 | 0.00 | 0.00 | 83 | 1013.3 |
| 20260507054010 | 6 | 4 | 0.0 | 0.0 | 0.00 | 0.00 | 0.00 | 83 | 1013.3 |
| 20260507053507 | 6 | 17 | 0.0 | 0.0 | 0.00 | 0.00 | 0.00 | 83 | 1013.3 |
| 20260507053006 | 6 | 26 | 1.6 | 1.6 | 0.00 | 0.00 | 0.00 | 83 | 1013.5 |
| 20260507052503 | 6 | 22 | 0.0 | 0.0 | 0.00 | 0.00 | 0.00 | 84 | 1013.3 |
| 20260507051959 | 6 | 14 | 3.2 | 3.2 | 0.00 | 0.00 | 0.00 | 83 | 1013.3 |
| 20260507051457 | 6 | 17 | 0.0 | 1.6 | 0.00 | 0.00 | 0.00 | 84 | 1013.3 |
| 20260507050954 | 6 | 12 | 1.6 | 1.6 | 0.00 | 0.00 | 0.00 | 83 | 1013.4 |
| 20260507050450 | 6 | 7 | 3.2 | 4.8 | 0.00 | 0.00 | 0.00 | 84 | 1013.3 |
| 20260507045947 | 6 | 23 | 1.6 | 1.6 | 0.00 | 0.00 | 0.00 | 84 | 1013.4 |
| 20260507045444 | 6 | 23 | 1.6 | 1.6 | 0.00 | 0.00 | 0.00 | 84 | 1013.5 |
| 20260507044941 | 6 | 355 | 1.6 | 1.6 | 0.00 | 0.00 | 0.00 | 86 | 1013.5 |
| 20260507044438 | 6 | 22 | 1.6 | 1.6 | 0.00 | 0.00 | 0.00 | 88 | 1013.3 |
| 20260507043934 | 6 | 342 | 1.6 | 1.6 | 0.00 | 0.00 | 0.00 | 90 | 1013.2 |
| 20260507043430 | 6 | 344 | 1.6 | 3.2 | 0.00 | 0.00 | 0.00 | 90 | 1013.3 |
| 20260507042926 | 6 | 13 | 0.0 | 0.0 | 0.00 | 0.00 | 0.00 | 91 | 1013.4 |
| 20260507042423 | 6 | 14 | 0.0 | 0.0 | 0.00 | 0.00 | 0.00 | 91 | 1013.4 |
| 20260507041919 | 6 | 20 | 0.0 | 0.0 | 0.00 | 0.00 | 0.00 | 90 | 1013.3 |
| 20260507041416 | 6 | 4 | 0.0 | 0.0 | 0.00 | 0.00 | 0.00 | 91 | 1013.4 |
| 20260507040914 | 7 | 4 | 0.0 | 1.6 | 0.00 | 0.00 | 0.00 | 90 | 1013.3 |
| 20260507040409 | 7 | 5 | 3.2 | 3.2 | 0.00 | 0.00 | 0.00 | 90 | 1013.3 |
| 20260507035905 | 7 | 18 | 1.6 | 1.6 | 0.00 | 0.25 | 0.25 | 90 | 1013.4 |
| 20260507035401 | 7 | 11 | 3.2 | 3.2 | 0.00 | 0.25 | 0.25 | 89 | 1013.4 |
| 20260507034859 | 7 | 16 | 1.6 | 1.6 | 0.00 | 0.25 | 0.25 | 89 | 1013.2 |
| 20260507034355 | 7 | 356 | 1.6 | 4.8 | 0.00 | 0.25 | 0.25 | 89 | 1013.7 |
| 20260507033853 | 7 | 16 | 1.6 | 1.6 | 0.00 | 0.25 | 0.25 | 90 | 1013.7 |
| 20260507033351 | 7 | 0 | 1.6 | 1.6 | 0.00 | 0.25 | 0.25 | 89 | 1013.8 |
| 20260507032848 | 7 | 342 | 1.6 | 1.6 | 0.00 | 0.25 | 0.25 | 90 | 1013.7 |
| 20260507032344 | 7 | 352 | 0.0 | 1.6 | 0.00 | 0.25 | 0.25 | 89 | 1013.8 |
| 20260507031841 | 7 | 21 | 1.6 | 3.2 | 0.00 | 0.25 | 0.25 | 90 | 1013.7 |
| 20260507031338 | 7 | 15 | 0.0 | 0.0 | 0.00 | 0.25 | 0.25 | 91 | 1013.5 |
| 20260507030834 | 7 | 37 | 0.0 | 0.0 | 0.00 | 0.25 | 0.25 | 91 | 1013.3 |
| 20260507030332 | 7 | 6 | 0.0 | 1.6 | 0.00 | 0.25 | 0.25 | 92 | 1013.2 |
| 20260507025828 | 7 | 358 | 0.0 | 1.6 | 0.00 | 0.25 | 0.25 | 92 | 1013.2 |
| 20260507025326 | 7 | 11 | 1.6 | 1.6 | 0.00 | 0.25 | 0.25 | 92 | 1013.0 |
| 20260507024824 | 7 | 14 | 0.0 | 0.0 | 0.00 | 0.25 | 0.25 | 92 | 1013.4 |
| 20260507024320 | 7 | 27 | 1.6 | 1.6 | 0.00 | 0.25 | 0.25 | 92 | 1013.4 |
| 20260507023816 | 7 | 7 | 0.0 | 0.0 | 0.00 | 0.25 | 0.25 | 92 | 1013.2 |
| 20260507023313 | 7 | 340 | 0.0 | 1.6 | 0.00 | 0.25 | 0.25 | 92 | 1013.3 |
| 20260507022810 | 7 | 359 | 0.0 | 1.6 | 0.00 | 0.25 | 0.25 | 92 | 1013.3 |
| 20260507022307 | 7 | 25 | 0.0 | 0.0 | 0.00 | 0.25 | 0.25 | 92 | 1013.4 |
| 20260507021803 | 7 | 4 | 0.0 | 0.0 | 0.00 | 0.25 | 0.25 | 92 | 1013.4 |
| 20260507021259 | 7 | 29 | 0.0 | 0.0 | 0.00 | 0.25 | 0.25 | 92 | 1013.0 |
| 20260507020757 | 7 | 22 | 0.0 | 0.0 | 0.00 | 0.25 | 0.25 | 91 | 1012.9 |
| 20260507020253 | 7 | 303 | 1.6 | 1.6 | 0.00 | 0.25 | 0.25 | 92 | 1012.6 |
| 20260507015751 | 7 | 12 | 1.6 | 3.2 | 0.00 | 0.25 | 0.25 | 92 | 1012.5 |
| 20260507015248 | 7 | 5 | 0.0 | 0.0 | 0.00 | 0.25 | 0.25 | 92 | 1012.9 |
| 20260507014745 | 7 | 15 | 1.6 | 3.2 | 0.00 | 0.25 | 0.25 | 92 | 1012.7 |
| 20260507014241 | 7 | 25 | 1.6 | 1.6 | 0.00 | 0.25 | 0.25 | 92 | 1013.0 |
| 20260507013737 | 7 | 2 | 0.0 | 0.0 | 0.00 | 0.25 | 0.25 | 92 | 1012.9 |
| 20260507013235 | 7 | 25 | 0.0 | 0.0 | 0.00 | 0.25 | 0.25 | 92 | 1012.8 |
| 20260507012732 | 7 | 26 | 0.0 | 1.6 | 0.00 | 0.25 | 0.25 | 92 | 1012.6 |
| 20260507012227 | 7 | 29 | 1.6 | 3.2 | 0.00 | 0.25 | 0.25 | 92 | 1012.7 |
| 20260507011725 | 7 | 24 | 0.0 | 0.0 | 0.00 | 0.25 | 0.25 | 92 | 1012.6 |
| 20260507011222 | 7 | 10 | 0.0 | 0.0 | 0.00 | 0.25 | 0.25 | 92 | 1012.6 |
| 20260507010721 | 7 | 273 | 3.2 | 3.2 | 0.00 | 0.25 | 0.25 | 92 | 1012.9 |
| 20260507010217 | 7 | 26 | 3.2 | 3.2 | 0.00 | 0.25 | 0.25 | 92 | 1012.7 |
| 20260507005715 | 7 | 27 | 0.0 | 0.0 | 0.00 | 0.25 | 0.25 | 92 | 1012.8 |
| 20260507005211 | 7 | 22 | 3.2 | 4.8 | 0.00 | 0.25 | 0.25 | 92 | 1012.7 |
| 20260507004708 | 7 | 304 | 1.6 | 1.6 | 0.00 | 0.25 | 0.25 | 92 | 1013.0 |
| 20260507004206 | 7 | 304 | 0.0 | 1.6 | 0.00 | 0.25 | 0.25 | 93 | 1012.8 |
| 20260507003702 | 7 | 21 | 0.0 | 1.6 | 0.00 | 0.25 | 0.25 | 92 | 1012.9 |
| 20260507003157 | 7 | 333 | 1.6 | 3.2 | 0.00 | 0.25 | 0.25 | 92 | 1013.0 |
| 20260507002653 | 7 | 352 | 1.6 | 3.2 | 0.00 | 0.25 | 0.25 | 92 | 1013.1 |
| 20260507002149 | 7 | 293 | 3.2 | 4.8 | 0.00 | 0.25 | 0.25 | 92 | 1013.4 |
| 20260507001646 | 7 | 8 | 6.4 | 6.4 | 0.00 | 0.25 | 0.25 | 92 | 1013.2 |
| 20260507001144 | 7 | 54 | 1.6 | 3.2 | 0.00 | 0.25 | 0.25 | 92 | 1013.0 |
| 20260507000640 | 7 | 336 | 3.2 | 4.8 | 0.00 | 0.25 | 0.25 | 92 | 1013.1 |
| 20260507000135 | 7 | 7 | 3.2 | 4.8 | 0.00 | 0.25 | 0.25 | 93 | 1012.7 |
| 20260506235633 | 7 | 346 | 1.6 | 3.2 | 0.00 | 0.25 | 0.25 | 94 | 1012.7 |
| 20260506235133 | 7 | 3 | 4.8 | 4.8 | 0.00 | 0.25 | 0.25 | 94 | 1012.6 |
| 20260506234631 | 7 | 359 | 4.8 | 11.3 | 0.00 | 0.25 | 0.25 | 94 | 1012.9 |
| 20260506234128 | 7 | 8 | 3.2 | 6.4 | 0.00 | 0.25 | 0.25 | 95 | 1013.0 |
| 20260506233625 | 7 | 24 | 0.0 | 1.6 | 0.00 | 0.25 | 0.25 | 95 | 1012.7 |
| 20260506233122 | 7 | 29 | 3.2 | 6.4 | 0.00 | 0.25 | 0.25 | 96 | 1012.7 |
| 20260506232618 | 7 | 354 | 3.2 | 4.8 | 0.00 | 0.25 | 0.25 | 96 | 1012.6 |
| 20260506232113 | 8 | 353 | 1.6 | 4.8 | 0.00 | 0.25 | 0.25 | 96 | 1012.6 |
| 20260506231611 | 8 | 28 | 3.2 | 3.2 | 0.00 | 0.25 | 0.25 | 97 | 1012.4 |
| 20260506231109 | 8 | 13 | 3.2 | 3.2 | 0.00 | 0.25 | 0.25 | 97 | 1012.2 |
| 20260506230605 | 8 | 257 | 3.2 | 3.2 | 0.00 | 0.25 | 0.25 | 97 | 1012.0 |
| 20260506225559 | 8 | 24 | 3.2 | 4.8 | 0.00 | 0.25 | 0.25 | 97 | 1011.7 |
| 20260506225055 | 8 | 327 | 3.2 | 3.2 | 0.00 | 0.25 | 0.25 | 97 | 1011.8 |
| 20260506224552 | 8 | 281 | 6.4 | 9.7 | 0.00 | 0.25 | 0.25 | 97 | 1011.9 |
| 20260506224049 | 8 | 344 | 4.8 | 4.8 | 0.00 | 0.25 | 0.25 | 97 | 1011.9 |
| 20260506223545 | 8 | 309 | 3.2 | 4.8 | 0.00 | 0.25 | 0.25 | 97 | 1011.9 |
| 20260506223042 | 8 | 34 | 3.2 | 3.2 | 0.00 | 0.25 | 0.25 | 97 | 1011.9 |
| 20260506222538 | 8 | 294 | 1.6 | 3.2 | 0.00 | 0.25 | 0.25 | 97 | 1011.8 |
| 20260506222035 | 8 | 44 | 0.0 | 1.6 | 0.00 | 0.25 | 0.25 | 97 | 1011.6 |
| 20260506221532 | 8 | 70 | 0.0 | 1.6 | 0.00 | 0.25 | 0.25 | 97 | 1011.8 |
| 20260506221030 | 8 | 6 | 1.6 | 1.6 | 0.00 | 0.25 | 0.25 | 97 | 1011.6 |
| 20260506220526 | 8 | 315 | 3.2 | 4.8 | 0.00 | 0.25 | 0.25 | 97 | 1011.6 |
| 20260506220021 | 8 | 280 | 3.2 | 11.3 | 0.00 | 0.25 | 0.25 | 98 | 1011.6 |
| 20260506215519 | 8 | 10 | 3.2 | 6.4 | 0.00 | 0.25 | 0.25 | 98 | 1011.5 |
| 20260506215014 | 8 | 130 | 0.0 | 1.6 | 0.00 | 0.25 | 0.25 | 98 | 1011.6 |
| 20260506214512 | 8 | 342 | 1.6 | 3.2 | 0.00 | 0.25 | 0.25 | 98 | 1011.6 |
| 20260506214009 | 8 | 277 | 4.8 | 6.4 | 0.00 | 0.25 | 0.25 | 98 | 1011.5 |
| 20260506213507 | 8 | 344 | 3.2 | 4.8 | 0.00 | 0.25 | 0.25 | 98 | 1011.6 |
| 20260506213003 | 8 | 338 | 1.6 | 1.6 | 0.00 | 0.25 | 0.25 | 99 | 1011.3 |
| 20260506212500 | 8 | 305 | 3.2 | 6.4 | 0.00 | 0.25 | 0.25 | 99 | 1011.3 |
| 20260506211954 | 8 | 0 | 1.6 | 3.2 | 0.00 | 0.25 | 0.25 | 99 | 1011.0 |
| 20260506211451 | 8 | 355 | 3.2 | 4.8 | 0.00 | 0.25 | 0.25 | 99 | 1011.1 |
| 20260506210948 | 8 | 316 | 3.2 | 4.8 | 0.00 | 0.25 | 0.25 | 98 | 1010.8 |
| 20260506210444 | 8 | 326 | 3.2 | 4.8 | 0.00 | 0.25 | 0.25 | 98 | 1011.2 |
| 20260506205942 | 8 | 307 | 3.2 | 4.8 | 0.00 | 0.25 | 0.25 | 98 | 1011.0 |
| 20260506205438 | 9 | 14 | 0.0 | 1.6 | 0.00 | 0.25 | 0.25 | 98 | 1010.9 |
| 20260506204934 | 9 | 276 | 3.2 | 4.8 | 0.00 | 0.25 | 0.25 | 98 | 1010.9 |
| 20260506204432 | 9 | 333 | 4.8 | 4.8 | 0.00 | 0.25 | 0.25 | 98 | 1010.9 |
| 20260506203929 | 9 | 265 | 3.2 | 4.8 | 0.00 | 0.25 | 0.25 | 98 | 1010.8 |
| 20260506203426 | 9 | 350 | 1.6 | 1.6 | 0.00 | 0.25 | 0.25 | 98 | 1010.5 |
| 20260506202923 | 9 | 44 | 1.6 | 1.6 | 0.00 | 0.25 | 0.25 | 98 | 1010.4 |
| 20260506202420 | 9 | 37 | 1.6 | 3.2 | 0.00 | 0.25 | 0.25 | 98 | 1010.5 |
| 20260506201917 | 9 | 26 | 3.2 | 4.8 | 0.00 | 0.25 | 0.25 | 98 | 1010.4 |
| 20260506201414 | 10 | 336 | 4.8 | 6.4 | 0.00 | 0.25 | 0.25 | 98 | 1010.3 |
| 20260506200911 | 10 | 272 | 4.8 | 4.8 | 0.00 | 0.25 | 0.25 | 98 | 1010.1 |
| 20260506200407 | 10 | 2 | 0.0 | 0.0 | 0.00 | 0.25 | 0.25 | 99 | 1010.3 |
| 20260506195903 | 10 | 347 | 1.6 | 1.6 | 0.00 | 0.25 | 0.25 | 99 | 1010.5 |
| 20260506195401 | 10 | 284 | 1.6 | 3.2 | 0.18 | 0.25 | 0.25 | 99 | 1010.5 |
| 20260506194857 | 10 | 337 | 3.2 | 6.4 | 0.18 | 0.25 | 0.25 | 98 | 1010.7 |
| 20260506194354 | 10 | 323 | 3.2 | 3.2 | 0.00 | 0.23 | 0.23 | 98 | 1010.5 |
| 20260506193852 | 10 | 247 | 1.6 | 1.6 | 0.00 | 0.23 | 0.23 | 98 | 1010.5 |
| 20260506193348 | 10 | 336 | 6.4 | 9.7 | 0.00 | 0.23 | 0.23 | 98 | 1010.4 |
| 20260506192844 | 10 | 339 | 4.8 | 6.4 | 0.00 | 0.23 | 0.23 | 98 | 1010.3 |
| 20260506192341 | 10 | 341 | 1.6 | 1.6 | 0.00 | 0.23 | 0.23 | 98 | 1010.2 |
| 20260506191838 | 10 | 274 | 6.4 | 6.4 | 0.00 | 0.23 | 0.23 | 98 | 1010.2 |
| 20260506191335 | 10 | 297 | 4.8 | 6.4 | 0.00 | 0.23 | 0.23 | 97 | 1010.0 |
| 20260506190832 | 10 | 291 | 3.2 | 4.8 | 0.00 | 0.23 | 0.23 | 97 | 1010.0 |
| 20260506190328 | 11 | 9 | 1.6 | 1.6 | 0.00 | 0.23 | 0.23 | 97 | 1010.1 |
| 20260506185825 | 11 | 21 | 4.8 | 6.4 | 0.00 | 0.23 | 0.23 | 96 | 1010.3 |